Location: Cuiabá
(15.6014°S, 56.0979°W)
Time: 16:07:15
(UTC-04:00)

Tiangong - Visible Passes

Search period start: 27 November 2022 00:00
Search period end: 07 December 2022 00:00
Orbit: 386 x 393 km, 41.5° (Epoch: 27 November)

Date Brightness Start Highest point End Pass type
(mag) Time Alt. Az. Time Alt. Az. Time Alt. Az.
27 Nov -0.3 04:10:10 11° NNW 04:12:45 25° NE 04:15:28 10° ESE visible
28 Nov 0.9 03:15:15 11° NE 03:15:15 11° NE 03:15:48 10° ENE visible
29 Nov -2.1 03:52:34 42° NW 03:53:32 79° NE 03:56:45 10° SE visible
30 Nov 0.8 02:57:27 16° E 02:57:27 16° E 02:58:23 10° ESE visible
30 Nov 0.1 04:30:19 10° WSW 04:32:26 16° SW 04:34:34 10° S visible
01 Dec -0.9 03:34:32 33° SSW 03:34:32 33° SSW 03:37:14 10° SSE visible
02 Dec 1.5 02:39:12 11° SE 02:39:12 11° SE 02:39:20 10° SE visible
03 Dec 0.7 03:16:04 13° SSW 03:16:04 13° SSW 03:16:49 10° S visible
